Flight Track Log - Related Links

Times and Time Zones

All times are in EST time to prevent confusion due to time zone crossing. See the SWA1457 flight status page for this flight to view local times or setup timezone preferences in your user account.

Time Position Orientation Groundspeed Altitude Reporting Facility
EST Latitude Longitude Course Direction KTS MPH feet Rate Location/Type
08:43AM 29.9956 -90.2794 253° West 148 170 800  Level Houston Center
08:44AM 29.9850 -90.3175 252° West 176 203 2,100 2,452 Climbing Houston Center
08:45AM 29.9578 -90.4022 250° West 235 270 5,500 3,726 Climbing Houston Center
08:46AM 29.9336 -90.4825 251° West 260 299 9,800 4,065 Climbing Houston Center
08:47AM 29.9053 -90.5678 249° West 281 323 13,900 3,823 Climbing Houston Center
08:48AM 29.8739 -90.6564 248° West 297 342 17,700 3,435 Climbing Houston Center
08:49AM 29.9584 -90.9202 253° West  Level Estimated
08:49AM 29.8392 -90.7442 246° West 300 345 21,000  Level Houston Center
08:50AM 29.8056 -90.8347 247° West 307 353 23,000 976 Climbing Houston Center
08:51AM 29.7683 -90.9381 247° West 351 404 23,000 919 Level Houston Center
08:52AM 29.7186 -91.0739 247° West 382 440 24,900 2,081 Climbing Houston Center
08:53AM 29.6817 -91.1919 250° West 390 449 27,300 2,226 Climbing Houston Center
08:54AM 29.6408 -91.3100 248° West 397 457 29,500 2,341 Climbing Houston Center
08:56AM 29.6014 -91.4278 249° West 397 457 32,100 2,195 Climbing Houston Center
08:57AM 29.5619 -91.5417 248° West 387 445 34,000 919 Climbing Houston Center
08:58AM 29.5236 -91.6561 249° West 385 443 34,000  Level Houston Center
08:59AM 29.4819 -91.7769 248° West 385 443 34,000  Level Houston Center
09:00AM 29.4433 -91.8914 249° West 385 443 34,000  Level Houston Center
09:01AM 29.4033 -92.0061 248° West 386 444 34,000 968 Level Houston Center
09:02AM 29.3558 -92.1431 248° West 385 443 36,000 1,707 Climbing Houston Center
09:03AM 29.3169 -92.2561 248° West 381 438 37,500 976 Climbing Houston Center
09:04AM 29.2781 -92.3692 249° West 381 438 38,000 242 Climbing Houston Center
09:05AM 29.2442 -92.4842 251° West 384 442 38,000  Level Houston Center
09:06AM 29.2464 -92.6014 271° West 371 427 38,000  Level Houston Center
09:07AM 29.2481 -92.7203 271° West 371 427 38,000  Level Houston Center
09:08AM 29.2508 -92.8367 272° West 369 425 38,000 -293 Level Houston Center
09:09AM 29.2528 -92.9797 271° West 372 428 37,400 -1,113 Descending Houston Center
09:10AM 29.2550 -93.0975 271° West 372 428 35,700 -1,839 Descending Houston Center
09:11AM 29.2567 -93.2131 271° West 368 423 33,600 -1,951 Descending Houston Center
09:12AM 29.2583 -93.3247 271° West 358 412 31,700 -1,902 Descending Houston Center
09:13AM 29.2600 -93.4356 271° West 352 405 29,700 -1,887 Descending Houston Center
09:14AM 29.2608 -93.5439 271° West 346 398 27,800 -1,809 Descending Houston Center
09:15AM 29.2625 -93.6708 271° West 338 389 25,600 -1,941 Descending Houston Center
09:16AM 29.2642 -93.7989 271° West 336 387 23,400 -1,887 Descending Houston Center
09:17AM 29.2650 -93.9039 271° West 334 384 21,700 -1,694 Descending Houston Center
09:18AM 29.2647 -94.0100 270° West 334 384 19,900 -1,817 Descending Houston Center
09:19AM 29.2656 -94.0972 271° West 333 383 18,400 -1,742 Descending Houston Center
09:19AM 29.2669 -94.1150 275° West 331 381 18,100 -1,522 Descending Houston Center
09:20AM 29.2647 -94.2147 269° West 330 380 16,700 -1,475 Descending Houston Center
09:20AM 29.2681 -94.2194 309° West 329 379 16,600 -1,574 Descending Houston Center
09:21AM 29.2647 -94.3178 268° West 321 369 15,100 -1,452 Descending Houston Center
09:21AM 29.2678 -94.3197 331° Northwest 320 368 15,100 -1,967 Level Houston Center
09:22AM 29.2669 -94.4253 270° West 317 365 13,100 -2,323 Descending Houston Center
09:23AM 29.2681 -94.4419 274° West 320 368 12,700 -1,082 Descending Houston Center
09:23AM 29.2831 -94.5239 282° West 320 368 12,000 -774 Descending Houston Center
09:24AM 29.2936 -94.5372 312° West 323 372 11,900 -885 Descending Houston Center
09:24AM 29.3272 -94.6119 297° West 317 365 11,100 -871 Descending Houston Center
09:25AM 29.3375 -94.6244 313° West 316 364 11,000 -806 Descending Houston Center
09:25AM 29.3789 -94.7108 299° West 314 361 10,200 -774 Descending Houston Center
09:26AM 29.3797 -94.7119 311° West 315 362 10,200 -197 Level Houston Center
09:26AM 29.4208 -94.7967 299° West 306 352 10,000 -290 Descending Houston Center
09:27AM 29.4219 -94.7972 336° Northwest 310 357 9,900 -984 Descending Houston Center
09:28AM 29.4581 -94.8761 298° West 284 327 9,000 -871 Descending Houston Center
09:28AM 29.4608 -94.8761 360° North 289 333 9,000 -873 Level Houston Center
09:28AM 29.4942 -94.9483 298° West 279 321 8,200 -871 Descending Houston Center
09:29AM 29.4986 -94.9536 314° West 281 323 8,100 -885 Descending Houston Center
09:29AM 29.5308 -95.0231 298° West 271 312 7,300 -1,065 Descending Houston Center
09:30AM 29.5425 -95.0433 303° West 271 312 7,000 -885 Descending Houston Center
09:30AM 29.5672 -95.0981 297° West 271 312 6,400 -871 Descending Houston Center
09:31AM 29.5792 -95.1200 302° West 271 312 6,100 -358 Descending Houston Center
09:32AM 29.6011 -95.1900 290° West 270 311 6,000 -97 Descending Houston Center
09:32AM 29.6053 -95.2058 287° West 273 314 6,000  Level Houston Center
09:32AM 29.6125 -95.2678 278° West 271 312 6,000  Level Houston Center
09:33AM 29.6158 -95.2919 279° West 269 310 6,000  Level Houston Center
09:34AM 29.6225 -95.3531 277° West 260 299 6,000  Level Houston Center
09:34AM 29.6264 -95.3731 283° West 258 297 6,000 -627 Level Houston Center
09:35AM 29.6536 -95.4192 304° West 220 253 5,300 -968 Descending Houston Center
09:35AM 29.6619 -95.4294 313° West 230 265 5,000 -873 Descending Houston Center
09:36AM 29.6917 -95.4675 312° West 216 249 4,500 -774 Descending Houston Center
09:36AM 29.7069 -95.4675 360° North 217 250 4,200 -806 Descending Houston Center
09:37AM 29.7344 -95.4286 51° Northeast 175 201 3,600 -677 Descending Houston Center
09:37AM 29.7372 -95.4217 65° Northeast 181 208 3,500 -1,091 Descending Houston Center
09:38AM 29.7217 -95.3822 114° Southeast 172 198 2,600 -1,065 Descending Houston Center
09:38AM 29.7183 -95.3700 107° East 173 199 2,400 -984 Descending Houston Center
09:39AM 29.6947 -95.3397 132° Southeast 162 186 1,600 -1,161 Descending Houston Center
09:39AM 29.6831 -95.3231 129° Southeast 167 192 1,200 -984 Descending Houston Center
09:40AM 29.6664 -95.3069 140° Southeast 126 145 600 -871 Descending Houston Center
09:40AM 29.6575 -95.2931 126° Southeast 150 173 300 -267 Descending Houston Center
09:41AM 29.6319 -95.2617 133° Southeast 147 169 200 -97 Descending Houston Center

Login

Don't have an account? Register now (free) for customized features, flight alerts, and more!